Theta_e
314 309 308 305 297 291 287 288 291 293 293 295 302 299 301 302 297 292 320 331 334 338 343 344 348 347 344 343 342 342 344 344 343 346 346 344 342 339 338 339 342 340 341 343 340 338 337 336 336
310 310 306 298 291 285 286 291 292 294 297 304 301 301 303 302 314 320 324 333 337 340 343 344 345 346 344 342 342 342 343 343 343 344 346 343 341 339 338 337 340 339 339 340 339 338 336 335 334
310 306 302 294 287 286 287 290 292 294 297 297 300 304 304 307 313 322 327 336 338 340 343 342 344 346 344 343 342 343 342 341 342 343 344 344 341 339 337 337 338 337 339 338 338 338 338 337 336
305 301 297 290 286 290 291 292 296 296 298 300 302 300 306 315 321 327 334 336 337 339 342 342 345 346 344 343 342 342 340 340 342 341 342 344 341 339 337 336 337 335 338 340 339 338 337 337 337
301 297 292 289 288 291 291 295 296 295 297 299 300 298 304 317 325 332 334 336 336 338 340 342 344 345 345 343 342 341 341 341 341 341 342 343 341 339 337 335 336 335 336 337 337 336 335 335 335
297 295 289 286 288 291 295 295 295 293 296 298 301 303 307 317 326 329 334 334 337 338 339 341 337 340 342 342 342 342 341 341 340 342 344 343 342 339 337 334 334 334 334 334 334 334 334 333 333
295 292 288 288 287 290 295 297 293 293 294 296 304 300 302 312 325 330 331 334 336 338 340 340 338 337 336 338 338 340 340 340 340 343 343 342 340 339 336 334 334 333 333 333 333 332 333 332 331
297 293 288 289 289 289 293 296 295 295 295 298 304 297 298 315 327 328 329 331 334 337 338 339 338 336 335 334 332 334 336 337 337 337 334 333 333 333 332 329 333 332 332 331 330 331 331 330 329
295 290 287 288 289 290 292 294 293 296 296 298 299 301 305 321 326 326 326 330 332 334 335 337 339 336 333 332 329 329 331 332 331 329 326 324 324 323 323 325 329 331 330 329 328 328 328 326 324
294 290 290 292 290 291 294 293 296 296 296 298 300 304 311 322 326 325 326 326 328 329 332 335 336 337 334 334 328 327 327 327 325 323 322 321 320 321 322 322 325 329 326 329 327 323 319 313 309
292 291 293 291 292 295 295 292 295 294 294 296 298 301 312 317 323 325 323 326 328 330 332 333 335 337 336 333 330 325 323 322 322 321 319 318 318 318 319 321 316 316 317 318 313 308 307 307 308
290 292 293 295 294 294 293 295 293 294 296 295 298 303 312 318 321 324 322 323 325 327 331 333 334 334 336 334 331 328 322 319 318 318 318 317 315 315 314 314 311 311 309 306 305 304 304 304 304
290 290 292 294 293 291 293 291 292 293 296 295 296 306 311 319 321 323 324 322 323 326 329 333 334 333 334 334 332 328 324 319 317 316 316 316 314 313 312 311 309 307 305 305 303 303 303 302 301
293 292 291 292 291 292 290 288 290 292 291 293 296 301 308 315 318 317 319 320 321 326 328 332 332 333 334 333 332 329 326 323 318 316 315 315 314 312 311 309 307 304 304 303 302 301 301 299 299
293 289 289 291 291 291 292 289 291 290 291 291 293 295 303 308 310 316 321 322 323 326 327 329 332 333 332 332 332 331 325 322 320 319 316 314 313 311 309 307 306 303 302 300 299 298 298 296 296
288 287 284 287 291 291 289 285 289 291 290 292 291 290 292 298 307 311 315 318 319 322 325 328 332 332 332 331 331 331 329 322 321 319 318 314 313 312 311 309 305 302 299 298 298 298 297 295 294
286 280 282 287 291 290 288 285 290 291 292 292 292 292 292 292 293 297 308 314 316 320 324 326 329 330 331 332 331 331 330 326 320 317 317 317 315 314 313 311 307 303 299 297 300 299 298 295 293
282 282 283 282 287 289 287 288 291 292 291 291 291 291 291 292 295 295 296 306 313 316 322 326 328 330 330 332 331 331 330 328 324 318 319 318 316 315 313 311 307 305 300 298 298 296 295 294 293
286 283 282 284 288 288 287 287 290 291 290 291 291 292 292 293 295 295 295 295 304 310 316 322 324 327 328 330 328 328 327 328 326 322 320 320 317 315 313 311 308 305 301 298 297 292 294 290 290
285 283 282 285 288 288 285 287 289 290 291 292 293 292 292 291 291 293 294 293 295 305 312 318 323 326 327 329 330 330 329 329 328 326 322 322 319 316 313 311 308 306 302 297 296 294 290 290 291
282 283 282 283 284 285 283 283 284 287 288 290 292 292 292 292 292 293 294 293 292 294 305 313 319 324 327 329 329 324 326 324 326 326 324 322 321 317 315 313 310 307 304 299 297 296 296 288 291
282 287 286 284 283 279 282 276 281 284 287 288 291 290 289 289 290 290 291 291 292 292 294 305 313 319 324 327 327 327 326 324 326 327 326 322 321 320 318 315 311 308 305 301 298 298 298 295 290
284 287 286 283 281 280 279 278 281 282 285 288 288 289 291 294 293 294 295 295 294 294 292 296 306 313 319 324 327 327 325 327 327 326 323 322 321 321 319 317 313 308 307 304 300 298 297 297 296
289 286 284 282 280 276 280 280 279 281 285 285 288 288 291 291 293 293 294 295 295 296 300 301 304 309 315 320 324 326 325 324 318 322 322 320 320 320 319 318 315 312 308 306 302 300 298 299 299
284 283 277 275 274 276 278 278 280 285 286 285 286 290 290 290 292 292 292 293 294 295 296 303 306 307 311 315 315 318 320 315 316 317 320 315 313 310 316 317 316 313 310 309 306 301 299 297 297
283 283 278 271 272 275 280 277 283 286 288 289 291 290 291 291 292 292 292 293 293 294 295 296 301 304 306 309 310 310 311 309 308 313 315 316 316 316 316 314 315 314 312 309 307 302 300 299 297
284 281 284 277 267 272 277 281 286 287 290 290 291 291 290 289 291 291 292 292 293 294 295 296 297 297 300 303 304 305 307 306 307 306 308 310 310 309 310 310 310 309 309 308 306 302 299 299 297
286 288 280 278 269 269 276 277 280 284 288 289 289 289 290 290 291 291 291 292 293 293 294 295 296 296 297 298 300 301 301 301 302 300 300 300 300 300 300 304 305 306 305 305 304 302 300 299 298
284 282 282 283 279 274 271 277 283 286 289 289 289 290 289 289 289 289 290 291 291 292 292 293 294 295 296 297 297 297 297 298 298 297 297 297 296 296 296 297 302 302 301 302 302 302 300 298 298
285 285 284 281 276 276 278 278 287 289 291 291 290 291 290 290 290 290 290 291 292 291 292 292 293 293 293 294 294 295 295 295 294 295 295 294 294 293 293 293 293 297 299 300 300 300 300 298 296
Wind_Speed
4 3 3 6 6 6 1 3 1 4 1 2 4 5 7 2 5 5 3 5 10 12 8 8 13 14 13 13 12 12 11 12 12 13 16 17 17 17 17 14 16 17 18 19 20 19 19 19 19
2 1 5 3 6 4 5 3 5 4 4 7 4 2 2 1 0 4 5 4 10 11 8 7 12 13 13 13 12 11 11 12 12 13 14 16 17 16 16 15 15 17 16 18 18 19 18 18 18
2 4 4 6 4 5 5 5 5 2 6 2 3 2 2 3 0 6 2 9 9 10 8 8 13 13 14 13 12 11 11 11 12 13 13 16 17 17 16 15 15 15 15 17 18 17 18 18 19
1 5 5 5 4 3 3 5 6 6 0 2 3 4 2 2 3 6 8 11 9 8 8 10 13 14 14 12 12 12 12 12 12 12 12 15 17 17 17 15 15 15 15 17 18 18 18 17 19
5 4 5 3 2 2 3 4 7 5 3 2 2 3 2 1 1 8 10 10 11 7 7 8 12 13 13 12 12 12 12 12 11 11 11 14 17 18 17 14 15 15 13 17 18 18 16 17 18
5 4 5 2 3 2 1 4 5 3 1 3 4 5 3 3 4 6 8 9 8 11 8 7 9 11 11 12 11 10 10 10 12 11 12 16 17 17 17 14 14 14 13 15 16 16 17 17 15
6 5 5 4 3 1 4 7 5 5 5 4 7 5 2 2 5 6 7 8 8 8 11 6 6 8 9 10 10 10 10 10 10 9 11 14 15 16 15 13 13 14 14 15 15 16 15 16 16
5 6 4 2 5 4 4 5 2 6 6 3 3 4 4 6 9 7 6 7 8 11 11 9 6 6 6 6 9 9 9 9 9 10 10 11 12 11 13 10 11 13 14 14 15 14 14 15 15
3 6 2 5 5 3 3 4 2 1 5 2 5 5 3 6 11 8 5 5 8 10 12 10 8 6 6 5 5 7 8 8 9 8 10 8 5 6 8 8 12 12 13 13 14 14 14 15 14
5 4 9 5 4 4 6 4 8 3 2 3 3 2 4 7 13 13 13 12 12 14 13 12 9 9 6 4 5 5 5 4 4 5 6 4 5 5 6 8 12 9 13 12 14 12 11 9 4
3 5 5 3 2 4 6 3 5 7 3 8 10 6 8 6 11 12 9 11 16 14 12 12 13 10 9 6 5 2 2 3 3 5 5 5 4 4 3 3 3 4 8 4 5 5 4 6 4
3 2 6 3 2 3 5 6 4 7 8 2 9 5 8 11 14 14 12 10 10 11 15 15 12 13 10 6 6 5 4 3 3 4 6 5 3 4 4 3 4 4 3 5 4 4 5 6 6
3 3 3 2 2 2 2 2 4 8 8 4 3 6 11 13 13 11 8 5 6 10 11 15 14 14 11 9 7 6 6 4 4 4 5 4 4 4 4 4 4 4 4 4 4 5 5 5 6
3 4 1 2 2 0 2 2 1 4 2 5 4 8 9 11 14 6 7 9 10 10 12 14 15 12 12 10 10 8 7 7 6 5 5 6 5 5 4 4 4 4 4 4 4 4 5 5 5
4 2 2 3 2 1 2 6 9 4 2 3 8 7 7 11 5 11 13 13 13 11 9 13 16 15 14 13 12 8 7 7 7 8 8 7 6 6 5 4 4 4 4 6 5 5 5 5 4
4 5 2 2 3 1 3 10 4 4 6 8 7 7 8 9 13 11 9 8 8 8 12 12 12 16 16 13 11 9 9 7 7 7 8 9 7 8 7 5 4 5 4 4 4 4 5 4 4
6 3 3 6 4 2 3 7 4 3 3 3 4 6 7 9 11 11 11 13 11 12 11 13 14 15 16 15 12 11 12 9 7 6 7 12 11 10 8 6 6 7 6 4 5 3 4 4 4
6 3 3 4 2 1 1 11 10 6 5 8 8 10 9 10 17 8 11 10 12 12 13 14 12 14 14 11 9 8 7 7 7 6 7 11 10 12 10 7 8 8 6 5 4 5 3 3 4
6 4 4 4 1 2 6 8 12 9 7 9 10 12 11 12 10 8 8 9 9 9 12 14 14 15 12 10 11 9 10 8 7 8 10 11 11 12 12 9 10 9 9 9 9 5 7 3 3
5 4 3 3 2 3 4 11 11 9 9 9 9 10 12 8 8 7 9 7 10 13 14 14 16 15 14 11 11 10 9 8 8 8 11 11 13 14 13 13 12 14 10 10 10 8 5 3 8
2 6 4 4 3 3 5 9 7 6 5 6 10 10 10 10 12 9 8 7 7 10 13 14 15 16 15 16 9 3 3 2 7 8 8 11 14 14 15 15 14 14 12 12 15 13 13 7 8
6 7 5 3 4 4 3 8 7 5 10 7 12 8 9 10 7 7 7 6 6 7 7 9 10 13 13 14 12 15 12 12 9 9 7 10 14 14 15 14 13 14 11 13 15 13 13 9 10
6 6 5 3 4 2 2 1 9 2 6 11 7 7 7 7 7 8 8 7 5 6 1 6 7 7 8 12 14 13 16 12 6 6 9 10 11 14 15 15 15 14 12 12 14 15 15 13 10
10 8 8 5 3 3 8 8 7 5 8 3 2 7 7 7 7 7 7 6 7 7 7 4 4 3 5 8 10 14 17 11 6 7 8 6 6 8 12 14 13 14 13 14 14 15 16 14 12
3 8 2 3 2 7 1 0 8 8 7 3 5 9 9 9 8 8 9 9 9 9 8 6 6 4 5 6 7 8 10 8 8 6 6 6 5 4 9 12 12 10 13 13 11 13 13 15 14
6 8 8 10 6 3 2 9 8 4 2 4 5 4 6 8 7 7 7 7 7 8 8 8 7 5 2 3 4 4 5 4 4 5 4 5 6 6 6 7 8 10 12 12 12 10 11 13 12
6 7 6 9 3 4 6 7 11 5 6 5 6 5 6 3 7 7 7 7 8 7 7 7 7 6 7 4 3 2 2 4 4 4 3 2 3 3 5 6 8 7 7 10 10 9 11 11 12
8 10 4 3 4 4 5 5 7 4 6 6 7 7 8 8 8 8 8 8 7 7 7 8 8 7 6 5 5 2 0 2 3 4 6 6 5 4 5 5 6 6 6 7 9 9 10 12 10
4 4 2 6 6 8 2 8 8 7 8 10 7 8 7 7 6 6 7 7 7 7 8 7 8 8 7 7 6 5 4 2 0 2 4 5 3 5 6 6 9 7 6 6 8 9 9 12 12
3 11 9 8 7 2 3 9 3 7 8 7 8 7 5 4 5 5 7 7 9 8 9 9 8 9 7 6 5 6 5 4 3 3 4 4 6 5 6 5 6 7 8 7 9 11 9 12 13
Wind_Direction
345 6 66 42 58 65 114 256 233 120 151 193 122 146 181 137 162 206 314 171 131 137 143 148 133 131 130 130 126 123 121 116 113 101 107 104 95 92 89 87 84 85 81 89 87 84 83 82 80
360 22 44 81 85 73 266 255 200 166 154 126 91 54 64 142 138 100 109 164 134 135 137 135 133 134 135 133 128 124 119 117 113 109 109 109 104 97 96 92 88 82 87 91 87 88 90 87 86
104 49 83 88 103 166 191 201 174 128 150 108 112 53 148 173 237 167 174 136 127 129 135 138 136 141 140 138 133 124 119 121 119 111 106 118 111 103 100 95 91 87 99 91 90 93 92 89 92
92 18 41 83 177 232 205 177 158 128 261 159 135 75 324 254 182 185 136 129 122 129 133 143 143 144 144 140 135 130 127 126 122 118 119 118 119 113 103 105 98 96 92 97 91 93 92 92 94
31 60 62 73 287 274 252 171 145 138 152 135 141 196 274 23 5 126 131 133 134 128 133 144 145 145 144 142 140 137 132 130 123 125 130 123 123 112 106 107 104 100 99 100 96 95 98 99 96
47 93 68 163 255 321 92 156 138 128 166 145 92 138 228 327 130 148 136 132 135 146 140 143 143 143 145 146 145 140 136 132 132 131 131 131 128 118 114 111 114 108 112 106 104 104 103 103 92
110 85 166 162 205 22 178 152 155 163 164 233 146 133 261 240 186 148 133 121 125 141 153 141 143 148 148 146 143 142 140 136 136 124 123 124 125 120 111 119 121 115 114 111 109 109 101 98 92
103 91 113 205 190 219 171 176 175 158 217 66 143 196 233 204 148 122 118 128 136 156 167 165 145 144 145 147 143 143 141 137 130 112 106 105 105 113 111 122 124 123 119 119 115 109 102 97 93
127 66 160 197 165 205 152 167 189 181 127 242 199 153 289 135 126 128 129 142 161 169 175 173 162 150 145 144 149 138 139 129 119 111 109 96 103 110 110 128 134 128 127 124 119 115 104 97 87
90 117 207 192 191 191 188 185 163 141 145 239 262 207 95 142 156 163 176 180 184 183 182 181 176 167 149 143 143 143 137 131 124 119 117 109 114 119 122 130 143 132 134 121 120 117 106 81 62
145 181 191 222 185 177 172 143 155 133 235 220 206 191 157 161 173 179 190 186 187 187 185 185 185 172 163 156 153 139 136 133 129 133 126 116 108 102 102 111 89 84 87 80 94 92 64 76 76
133 174 162 172 178 151 175 137 185 190 210 262 235 176 164 171 185 191 198 189 177 180 188 187 182 181 174 161 164 158 151 145 145 150 142 135 122 123 124 120 119 106 100 110 98 81 82 75 69
160 180 172 115 135 86 117 234 230 247 243 256 96 164 182 189 198 206 202 184 173 183 185 189 186 189 180 170 165 164 167 164 156 154 152 139 141 146 134 129 123 117 112 114 106 104 99 84 72
181 121 149 157 176 168 198 275 115 281 322 202 186 209 204 199 202 179 188 199 196 189 190 188 193 189 185 189 175 172 171 173 164 162 168 158 149 151 142 136 132 120 121 110 109 109 99 84 80
88 114 349 217 188 205 171 288 236 229 13 186 229 241 228 228 223 214 208 206 201 202 182 187 193 192 192 193 193 176 177 171 177 176 171 167 157 155 144 140 137 132 104 101 89 82 82 90 82
72 54 124 313 161 79 141 264 275 334 201 244 236 248 242 241 229 229 223 217 199 192 189 189 188 195 196 195 193 194 181 180 185 180 171 168 161 160 156 152 145 132 120 118 116 123 103 105 105
10 179 198 317 214 114 154 264 282 37 34 269 244 253 262 263 260 238 221 218 207 199 193 192 190 192 195 199 197 196 194 182 186 178 179 179 169 169 166 166 150 143 138 132 142 128 129 137 119
191 180 226 237 232 103 211 266 282 279 304 274 277 273 260 262 255 234 226 221 216 204 199 197 192 195 190 190 194 197 189 185 178 184 189 181 178 175 165 158 153 152 147 147 140 131 86 105 119
126 147 186 241 186 162 235 267 274 288 294 266 257 267 263 250 266 243 237 223 215 210 198 196 187 194 184 190 196 194 200 185 185 189 191 182 182 176 175 166 160 165 172 171 154 121 133 116 123
121 141 217 292 45 158 349 277 267 266 256 242 256 263 259 278 285 268 264 237 210 211 206 203 198 191 192 194 201 205 200 202 193 189 190 188 187 183 182 177 177 175 168 165 171 160 154 132 178
165 159 198 205 14 57 346 292 290 293 268 281 263 254 273 264 279 280 280 265 235 221 205 203 200 196 194 196 186 123 137 117 187 195 187 192 190 190 191 187 181 181 180 183 181 183 179 167 195
193 201 162 150 93 231 24 284 298 285 301 294 277 297 297 298 292 297 310 309 293 256 210 202 204 204 199 190 189 196 200 208 207 199 191 189 190 197 198 199 191 188 192 191 189 188 192 166 180
203 126 136 89 103 56 322 350 270 343 285 268 316 350 351 351 14 16 9 356 11 12 249 210 200 197 194 194 199 200 213 221 200 180 177 186 193 202 201 198 190 186 188 208 201 190 195 200 189
156 82 53 51 87 294 207 173 272 201 212 264 109 342 339 351 22 28 22 20 31 22 37 60 183 191 181 185 199 205 215 213 176 186 188 184 187 198 210 198 202 204 201 195 199 211 204 212 214
86 93 14 347 354 229 338 254 248 253 238 241 300 314 338 355 21 30 26 20 26 23 23 39 94 109 151 172 166 182 203 187 201 178 187 171 177 187 203 202 202 202 207 210 207 200 210 206 208
188 151 162 192 197 243 72 236 250 188 49 60 54 61 58 51 33 37 32 30 32 29 28 36 43 60 51 154 155 148 147 157 166 177 187 193 201 217 208 210 214 208 207 208 205 196 209 212 220
201 214 160 104 29 54 217 285 303 124 82 65 50 78 62 91 54 49 36 31 31 33 35 41 54 53 54 42 84 112 155 155 178 187 195 211 198 195 193 195 205 204 200 204 197 207 210 208 215
169 149 80 8 142 237 266 270 231 156 154 144 77 55 43 32 38 37 41 29 23 29 23 30 37 50 45 46 47 48 132 195 190 175 209 217 224 215 217 214 211 214 208 197 200 211 211 214 216
137 179 126 127 156 177 216 254 222 180 166 133 108 73 51 38 37 42 49 40 35 35 31 33 31 31 31 28 31 33 12 18 316 239 257 246 245 231 223 220 235 228 215 202 207 222 216 216 224
221 188 163 170 214 232 149 254 321 166 145 126 115 102 87 68 47 51 58 48 40 33 33 36 32 32 21 15 30 30 14 14 3 313 293 279 260 254 247 238 228 223 232 222 223 229 222 220 224